Time,TemperatureF,DewpointF,PressureIn,WindDirection,WindDirectionDegrees,WindSpeedMPH,WindSpeedGustMPH,Humidity,HourlyPrecipIn,Conditions,Clouds,dailyrainin,SoftwareType,DateUTC
2013-04-18 00:00:00,59.5,54.3,30.20,NW,326,0.0,0.0,83,0.00,,,0.08,Wunderground v.1.15,2013-04-18 04:00:00,
2013-04-18 00:05:00,59.7,54.9,30.20,NW,326,0.0,0.0,84,0.00,,,0.00,Wunderground v.1.15,2013-04-18 04:05:00,
2013-04-18 00:10:00,59.9,55.1,30.21,NW,326,0.0,0.0,84,0.00,,,0.00,Wunderground v.1.15,2013-04-18 04:10:00,
2013-04-18 00:15:00,60.1,55.2,30.21,NW,326,0.0,0.0,84,0.00,,,0.00,Wunderground v.1.15,2013-04-18 04:15:00,
2013-04-18 00:20:00,60.3,55.1,30.21,NW,326,0.0,0.0,83,0.00,,,0.00,Wunderground v.1.15,2013-04-18 04:20:00,
2013-04-18 00:25:00,60.4,55.5,30.20,NW,326,0.0,0.0,84,0.00,,,0.00,Wunderground v.1.15,2013-04-18 04:25:00,
2013-04-18 00:35:00,60.5,55.6,30.20,NW,326,0.0,0.0,84,0.00,,,0.00,Wunderground v.1.15,2013-04-18 04:35:00,
2013-04-18 00:40:00,60.5,55.6,30.21,NNW,327,0.0,0.0,84,0.00,,,0.00,Wunderground v.1.15,2013-04-18 04:40:00,
2013-04-18 00:45:00,60.5,55.3,30.21,NW,326,0.0,0.0,83,0.00,,,0.00,Wunderground v.1.15,2013-04-18 04:45:00,
2013-04-18 00:50:00,60.5,55.3,30.21,NW,326,0.0,0.0,83,0.00,,,0.00,Wunderground v.1.15,2013-04-18 04:50:00,
2013-04-18 00:55:00,60.5,55.3,30.21,NW,326,0.0,0.0,83,0.00,,,0.00,Wunderground v.1.15,2013-04-18 04:55:00,
2013-04-18 01:00:00,60.5,55.3,30.21,NW,326,0.0,0.0,83,0.00,,,0.00,Wunderground v.1.15,2013-04-18 05:00:00,
2013-04-18 01:10:00,60.5,55.3,30.20,NW,326,0.0,0.0,83,0.00,,,0.00,Wunderground v.1.15,2013-04-18 05:10:00,
2013-04-18 01:15:00,60.5,55.3,30.20,NW,326,0.0,0.0,83,0.00,,,0.00,Wunderground v.1.15,2013-04-18 05:15:00,
2013-04-18 01:20:00,60.5,55.3,30.20,NW,326,0.0,0.0,83,0.00,,,0.00,Wunderground v.1.15,2013-04-18 05:20:00,
2013-04-18 01:25:00,60.5,55.3,30.20,NW,326,0.0,0.0,83,0.00,,,0.00,Wunderground v.1.15,2013-04-18 05:25:00,
2013-04-18 01:30:00,60.6,55.4,30.20,NW,326,0.0,0.0,83,0.00,,,0.00,Wunderground v.1.15,2013-04-18 05:30:00,
2013-04-18 01:35:00,60.6,55.4,30.20,NW,326,0.0,0.0,83,0.00,,,0.00,Wunderground v.1.15,2013-04-18 05:35:00,
2013-04-18 01:45:00,60.7,56.2,30.20,NW,326,0.0,0.0,85,0.00,,,0.00,Wunderground v.1.15,2013-04-18 05:45:00,
2013-04-18 01:50:00,60.6,56.1,30.20,NW,326,0.0,0.0,85,0.00,,,0.00,Wunderground v.1.15,2013-04-18 05:50:00,
2013-04-18 01:55:00,60.4,56.2,30.20,NW,326,0.0,0.0,86,0.00,,,0.00,Wunderground v.1.15,2013-04-18 05:55:00,
2013-04-18 02:00:00,60.3,56.1,30.20,NW,326,0.0,0.0,86,0.00,,,0.00,Wunderground v.1.15,2013-04-18 06:00:00,
2013-04-18 02:10:00,60.1,55.9,30.20,NW,326,0.0,0.0,86,0.00,,,0.00,Wunderground v.1.15,2013-04-18 06:10:00,
2013-04-18 02:20:00,60.1,55.6,30.19,NW,326,0.0,0.0,85,0.00,,,0.00,Wunderground v.1.15,2013-04-18 06:20:00,
2013-04-18 02:25:00,60.1,55.9,30.19,NW,326,0.0,0.0,86,0.00,,,0.00,Wunderground v.1.15,2013-04-18 06:25:00,
2013-04-18 02:30:00,60.2,56.0,30.19,NW,326,0.0,0.0,86,0.00,,,0.00,Wunderground v.1.15,2013-04-18 06:30:00,
2013-04-18 02:35:00,60.2,55.7,30.19,NW,326,0.0,0.0,85,0.00,,,0.00,Wunderground v.1.15,2013-04-18 06:35:00,
2013-04-18 02:40:00,60.2,55.7,30.19,NW,326,0.0,0.0,85,0.00,,,0.00,Wunderground v.1.15,2013-04-18 06:40:00,
2013-04-18 02:50:00,60.3,56.1,30.18,NW,326,0.0,0.0,86,0.00,,,0.00,Wunderground v.1.15,2013-04-18 06:50:00,
2013-04-18 02:55:00,60.2,56.0,30.18,NW,326,0.0,0.0,86,0.00,,,0.00,Wunderground v.1.15,2013-04-18 06:55:00,
2013-04-18 03:00:00,60.1,56.2,30.17,NW,326,1.0,1.0,87,0.00,,,0.00,Wunderground v.1.15,2013-04-18 07:00:00,
2013-04-18 03:10:00,60.0,56.1,30.17,NW,326,0.0,0.0,87,0.00,,,0.00,Wunderground v.1.15,2013-04-18 07:10:00,
2013-04-18 03:15:00,59.9,56.0,30.17,NW,326,0.0,0.0,87,0.00,,,0.00,Wunderground v.1.15,2013-04-18 07:15:00,
2013-04-18 03:25:00,59.9,55.7,30.17,NW,326,1.0,1.0,86,0.00,,,0.00,Wunderground v.1.15,2013-04-18 07:25:00,
2013-04-18 03:30:00,59.9,56.0,30.18,NW,326,0.0,0.0,87,0.00,,,0.00,Wunderground v.1.15,2013-04-18 07:30:00,
2013-04-18 03:35:00,59.9,56.0,30.18,NW,326,0.0,0.0,87,0.00,,,0.00,Wunderground v.1.15,2013-04-18 07:35:00,
2013-04-18 03:40:00,59.8,55.9,30.18,NW,326,0.0,0.0,87,0.00,,,0.00,Wunderground v.1.15,2013-04-18 07:40:00,
2013-04-18 03:45:00,59.8,55.9,30.18,NW,326,0.0,1.0,87,0.00,,,0.00,Wunderground v.1.15,2013-04-18 07:45:00,
2013-04-18 03:50:00,59.8,55.9,30.18,NNW,327,1.0,3.0,87,0.00,,,0.00,Wunderground v.1.15,2013-04-18 07:50:00,
2013-04-18 04:00:00,59.8,55.9,30.18,NNW,348,1.0,1.0,87,0.00,,,0.00,Wunderground v.1.15,2013-04-18 08:00:00,
2013-04-18 04:10:00,59.7,55.8,30.17,NNW,348,0.0,3.0,87,0.00,,,0.00,Wunderground v.1.15,2013-04-18 08:10:00,
2013-04-18 04:15:00,59.6,55.4,30.17,NNW,348,1.0,3.0,86,0.00,,,0.00,Wunderground v.1.15,2013-04-18 08:15:00,
2013-04-18 04:20:00,59.7,55.5,30.17,NNW,348,1.0,2.0,86,0.00,,,0.00,Wunderground v.1.15,2013-04-18 08:20:00,
2013-04-18 04:25:00,59.7,55.5,30.17,North,360,2.0,2.0,86,0.00,,,0.00,Wunderground v.1.15,2013-04-18 08:25:00,
2013-04-18 04:30:00,59.6,55.4,30.17,North,360,1.0,1.0,86,0.00,,,0.00,Wunderground v.1.15,2013-04-18 08:30:00,
2013-04-18 04:35:00,59.6,55.4,30.17,North,360,1.0,2.0,86,0.00,,,0.00,Wunderground v.1.15,2013-04-18 08:35:00,
2013-04-18 04:40:00,59.6,55.1,30.17,North,10,2.0,3.0,85,0.00,,,0.00,Wunderground v.1.15,2013-04-18 08:40:00,
2013-04-18 04:45:00,59.6,55.1,30.17,NNE,26,3.0,5.0,85,0.00,,,0.00,Wunderground v.1.15,2013-04-18 08:45:00,
2013-04-18 04:50:00,59.6,54.8,30.17,NNE,28,4.0,4.0,84,0.00,,,0.00,Wunderground v.1.15,2013-04-18 08:50:00,
2013-04-18 05:00:00,59.5,54.3,30.17,NE,53,2.0,2.0,83,0.00,,,0.00,Wunderground v.1.15,2013-04-18 09:00:00,
2013-04-18 05:10:00,59.5,54.0,30.16,ENE,77,1.0,3.0,82,0.00,,,0.00,Wunderground v.1.15,2013-04-18 09:10:00,
2013-04-18 05:15:00,59.4,53.9,30.16,NE,52,1.0,3.0,82,0.00,,,0.00,Wunderground v.1.15,2013-04-18 09:15:00,
2013-04-18 05:20:00,59.4,53.9,30.16,NE,51,1.0,1.0,82,0.00,,,0.00,Wunderground v.1.15,2013-04-18 09:20:00,
2013-04-18 05:30:00,59.1,53.6,30.16,ESE,105,1.0,1.0,82,0.00,,,0.00,Wunderground v.1.15,2013-04-18 09:30:00,
2013-04-18 05:35:00,59.1,53.6,30.16,East,91,1.0,1.0,82,0.00,,,0.00,Wunderground v.1.15,2013-04-18 09:35:00,
2013-04-18 05:40:00,59.0,53.8,30.16,East,91,0.0,0.0,83,0.00,,,0.00,Wunderground v.1.15,2013-04-18 09:40:00,
2013-04-18 05:45:00,58.9,53.7,30.16,East,91,0.0,0.0,83,0.00,,,0.00,Wunderground v.1.15,2013-04-18 09:45:00,
2013-04-18 05:50:00,58.8,54.0,30.16,East,91,0.0,0.0,84,0.00,,,0.00,Wunderground v.1.15,2013-04-18 09:50:00,
2013-04-18 05:55:00,58.7,53.9,30.16,East,91,0.0,0.0,84,0.00,,,0.00,Wunderground v.1.15,2013-04-18 09:55:00,
2013-04-18 06:00:00,58.6,53.8,30.16,SE,126,0.0,5.0,84,0.00,,,0.00,Wunderground v.1.15,2013-04-18 10:00:00,
2013-04-18 06:10:00,58.4,53.9,30.16,SE,142,2.0,2.0,85,0.00,,,0.00,Wunderground v.1.15,2013-04-18 10:10:00,
2013-04-18 06:15:00,58.2,54.0,30.16,SE,142,1.0,2.0,86,0.00,,,0.00,Wunderground v.1.15,2013-04-18 10:15:00,
2013-04-18 06:20:00,58.1,53.9,30.16,SE,142,0.0,0.0,86,0.00,,,0.00,Wunderground v.1.15,2013-04-18 10:20:00,
2013-04-18 06:25:00,58.0,53.8,30.16,SE,142,0.0,2.0,86,0.00,,,0.00,Wunderground v.1.15,2013-04-18 10:25:00,
2013-04-18 06:35:00,58.0,54.2,30.16,SE,142,0.0,1.0,87,0.00,,,0.00,Wunderground v.1.15,2013-04-18 10:35:00,
2013-04-18 06:40:00,57.9,53.7,30.16,SE,142,0.0,0.0,86,0.00,,,0.00,Wunderground v.1.15,2013-04-18 10:40:00,
2013-04-18 06:45:00,57.9,53.7,30.17,SE,142,0.0,0.0,86,0.00,,,0.00,Wunderground v.1.15,2013-04-18 10:45:00,
2013-04-18 06:50:00,57.9,54.1,30.17,SE,142,0.0,0.0,87,0.00,,,0.00,Wunderground v.1.15,2013-04-18 10:50:00,
2013-04-18 06:55:00,57.9,54.1,30.17,SE,142,0.0,0.0,87,0.00,,,0.00,Wunderground v.1.15,2013-04-18 10:55:00,
2013-04-18 07:00:00,57.9,54.1,30.17,SE,142,0.0,0.0,87,0.00,,,0.00,Wunderground v.1.15,2013-04-18 11:00:00,
2013-04-18 07:10:00,57.8,54.0,30.18,SE,142,0.0,0.0,87,0.00,,,0.00,Wunderground v.1.15,2013-04-18 11:10:00,
2013-04-18 07:15:00,57.8,54.0,30.18,SE,142,0.0,0.0,87,0.00,,,0.00,Wunderground v.1.15,2013-04-18 11:15:00,
2013-04-18 07:20:00,57.8,54.3,30.18,SE,142,0.0,1.0,88,0.00,,,0.00,Wunderground v.1.15,2013-04-18 11:20:00,
2013-04-18 07:25:00,57.8,54.3,30.18,SSE,167,1.0,1.0,88,0.00,,,0.00,Wunderground v.1.15,2013-04-18 11:25:00,
2013-04-18 07:30:00,57.7,54.2,30.18,South,184,1.0,1.0,88,0.00,,,0.00,Wunderground v.1.15,2013-04-18 11:30:00,
2013-04-18 07:40:00,57.7,54.2,30.18,SSE,162,0.0,2.0,88,0.00,,,0.00,Wunderground v.1.15,2013-04-18 11:40:00,
2013-04-18 07:45:00,57.7,54.2,30.19,SSE,162,0.0,2.0,88,0.00,,,0.00,Wunderground v.1.15,2013-04-18 11:45:00,
2013-04-18 07:50:00,57.7,54.2,30.19,SSE,162,0.0,0.0,88,0.00,,,0.00,Wunderground v.1.15,2013-04-18 11:50:00,
2013-04-18 07:55:00,57.7,54.5,30.19,SSE,162,0.0,0.0,89,0.00,,,0.00,Wunderground v.1.15,2013-04-18 11:55:00,
2013-04-18 08:00:00,57.6,54.4,30.19,SSE,167,1.0,1.0,89,0.00,,,0.00,Wunderground v.1.15,2013-04-18 12:00:00,
2013-04-18 08:10:00,57.7,54.5,30.19,SSE,165,0.0,0.0,89,0.00,,,0.00,Wunderground v.1.15,2013-04-18 12:10:00,
2013-04-18 08:15:00,57.7,54.5,30.19,SSE,165,0.0,0.0,89,0.00,,,0.00,Wunderground v.1.15,2013-04-18 12:15:00,
2013-04-18 08:20:00,57.7,54.5,30.19,SSE,165,0.0,0.0,89,0.00,,,0.00,Wunderground v.1.15,2013-04-18 12:20:00,
2013-04-18 08:25:00,57.7,54.8,30.19,SSE,165,0.0,0.0,90,0.00,,,0.00,Wunderground v.1.15,2013-04-18 12:25:00,
2013-04-18 08:30:00,57.7,54.8,30.19,SSE,165,0.0,0.0,90,0.00,,,0.00,Wunderground v.1.15,2013-04-18 12:30:00,
2013-04-18 08:35:00,57.7,54.8,30.19,South,176,0.0,0.0,90,0.00,,,0.00,Wunderground v.1.15,2013-04-18 12:35:00,
2013-04-18 08:45:00,57.8,54.9,30.19,South,176,0.0,1.0,90,0.00,,,0.00,Wunderground v.1.15,2013-04-18 12:45:00,
2013-04-18 08:50:00,57.8,55.2,30.19,South,176,0.0,0.0,91,0.00,,,0.00,Wunderground v.1.15,2013-04-18 12:50:00,
2013-04-18 08:55:00,57.8,55.2,30.19,South,176,0.0,0.0,91,0.00,,,0.00,Wunderground v.1.15,2013-04-18 12:55:00,
2013-04-18 09:00:00,57.7,55.1,30.19,South,176,0.0,0.0,91,0.00,,,0.00,Wunderground v.1.15,2013-04-18 13:00:00,
2013-04-18 09:10:00,57.7,55.1,30.19,ESE,109,0.0,0.0,91,0.00,,,0.00,Wunderground v.1.15,2013-04-18 13:10:00,
2013-04-18 09:15:00,57.7,55.1,30.19,ESE,109,0.0,0.0,91,0.00,,,0.00,Wunderground v.1.15,2013-04-18 13:15:00,
2013-04-18 09:20:00,57.7,55.1,30.19,ESE,109,0.0,0.0,91,0.00,,,0.00,Wunderground v.1.15,2013-04-18 13:20:00,
2013-04-18 09:25:00,57.8,55.2,30.19,ESE,109,0.0,0.0,91,0.00,,,0.00,Wunderground v.1.15,2013-04-18 13:25:00,
2013-04-18 09:30:00,57.9,55.6,30.18,East,84,0.0,1.0,92,0.00,,,0.00,Wunderground v.1.15,2013-04-18 13:30:00,
2013-04-18 09:35:00,58.0,55.7,30.18,ENE,76,1.0,1.0,92,0.00,,,0.00,Wunderground v.1.15,2013-04-18 13:35:00,
2013-04-18 09:40:00,58.1,55.8,30.19,ENE,63,1.0,1.0,92,0.00,,,0.00,Wunderground v.1.15,2013-04-18 13:40:00,
2013-04-18 09:50:00,58.2,55.9,30.18,ENE,64,1.0,1.0,92,0.00,,,0.00,Wunderground v.1.15,2013-04-18 13:50:00,
2013-04-18 09:55:00,58.3,56.0,30.19,ENE,64,0.0,1.0,92,0.00,,,0.00,Wunderground v.1.15,2013-04-18 13:55:00,
2013-04-18 10:00:00,58.3,56.0,30.19,ENE,64,1.0,3.0,92,0.00,,,0.00,Wunderground v.1.15,2013-04-18 14:00:00,
2013-04-18 10:10:00,58.3,56.0,30.19,ENE,61,1.0,1.0,92,0.00,,,0.00,Wunderground v.1.15,2013-04-18 14:10:00,
2013-04-18 10:20:00,58.5,56.2,30.19,ENE,61,1.0,2.0,92,0.00,,,0.00,Wunderground v.1.15,2013-04-18 14:20:00,
2013-04-18 10:25:00,58.5,56.2,30.19,ENE,61,1.0,2.0,92,0.00,,,0.00,Wunderground v.1.15,2013-04-18 14:25:00,
2013-04-18 10:30:00,58.6,56.3,30.18,NE,55,1.0,1.0,92,0.00,,,0.00,Wunderground v.1.15,2013-04-18 14:30:00,
2013-04-18 10:35:00,58.7,56.4,30.18,East,91,1.0,1.0,92,0.00,,,0.00,Wunderground v.1.15,2013-04-18 14:35:00,
2013-04-18 10:40:00,58.9,56.6,30.18,East,91,0.0,1.0,92,0.00,,,0.00,Wunderground v.1.15,2013-04-18 14:40:00,
2013-04-18 10:45:00,58.9,56.6,30.18,East,91,1.0,1.0,92,0.00,,,0.00,Wunderground v.1.15,2013-04-18 14:45:00,
2013-04-18 10:55:00,59.1,56.8,30.18,South,184,1.0,4.0,92,0.00,,,0.00,Wunderground v.1.15,2013-04-18 14:55:00,
2013-04-18 11:00:00,59.3,56.7,30.18,South,176,1.0,2.0,91,0.00,,,0.00,Wunderground v.1.15,2013-04-18 15:00:00,
2013-04-18 11:10:00,59.5,56.9,30.18,South,175,2.0,2.0,91,0.00,,,0.00,Wunderground v.1.15,2013-04-18 15:10:00,
2013-04-18 11:15:00,59.6,57.0,30.18,South,175,1.0,2.0,91,0.00,,,0.00,Wunderground v.1.15,2013-04-18 15:15:00,
2013-04-18 11:25:00,59.9,57.3,30.18,SE,136,0.0,0.0,91,0.00,,,0.00,Wunderground v.1.15,2013-04-18 15:25:00,
2013-04-18 11:30:00,60.0,57.4,30.18,SE,136,0.0,0.0,91,0.00,,,0.00,Wunderground v.1.15,2013-04-18 15:30:00,
2013-04-18 11:35:00,60.1,57.5,30.18,SSE,150,0.0,0.0,91,0.00,,,0.00,Wunderground v.1.15,2013-04-18 15:35:00,
2013-04-18 11:40:00,60.2,57.6,30.18,SE,142,1.0,4.0,91,0.00,,,0.00,Wunderground v.1.15,2013-04-18 15:40:00,
2013-04-18 11:45:00,60.2,57.6,30.17,SE,139,1.0,4.0,91,0.00,,,0.00,Wunderground v.1.15,2013-04-18 15:45:00,
2013-04-18 11:50:00,60.3,57.7,30.17,SSE,154,1.0,1.0,91,0.00,,,0.00,Wunderground v.1.15,2013-04-18 15:50:00,
2013-04-18 11:55:00,60.3,57.7,30.17,SE,132,2.0,2.0,91,0.00,,,0.00,Wunderground v.1.15,2013-04-18 15:55:00,
2013-04-18 12:00:00,60.3,57.7,30.17,East,101,1.0,1.0,91,0.00,,,0.00,Wunderground v.1.15,2013-04-18 16:00:00,
2013-04-18 12:10:00,60.2,57.9,30.17,ESE,122,2.0,2.0,92,0.00,,,0.01,Wunderground v.1.15,2013-04-18 16:10:00,
2013-04-18 12:15:00,60.1,57.8,30.16,East,101,2.0,4.0,92,0.00,,,0.01,Wunderground v.1.15,2013-04-18 16:15:00,
2013-04-18 12:20:00,60.0,58.0,30.16,ESE,116,1.0,4.0,93,0.00,,,0.01,Wunderground v.1.15,2013-04-18 16:20:00,
2013-04-18 12:30:00,60.0,58.3,30.15,SE,128,2.0,2.0,94,0.10,,,0.03,Wunderground v.1.15,2013-04-18 16:30:00,
2013-04-18 12:35:00,60.1,58.4,30.15,South,173,2.0,2.0,94,0.08,,,0.03,Wunderground v.1.15,2013-04-18 16:35:00,
2013-04-18 12:40:00,60.1,58.4,30.15,South,169,1.0,4.0,94,0.06,,,0.04,Wunderground v.1.15,2013-04-18 16:40:00,
2013-04-18 12:45:00,60.1,58.4,30.15,South,176,1.0,4.0,94,0.06,,,0.04,Wunderground v.1.15,2013-04-18 16:45:00,
2013-04-18 12:50:00,60.1,58.7,30.15,South,175,1.0,1.0,95,0.07,,,0.05,Wunderground v.1.15,2013-04-18 16:50:00,
2013-04-18 12:55:00,60.2,58.8,30.15,South,175,1.0,1.0,95,0.07,,,0.05,Wunderground v.1.15,2013-04-18 16:55:00,
2013-04-18 13:00:00,60.2,58.8,30.15,South,175,0.0,1.0,95,0.04,,,0.05,Wunderground v.1.15,2013-04-18 17:00:00,
2013-04-18 13:10:00,60.2,58.8,30.14,South,175,0.0,0.0,95,0.00,,,0.05,Wunderground v.1.15,2013-04-18 17:10:00,
2013-04-18 13:15:00,60.3,58.9,30.13,South,175,0.0,0.0,95,0.00,,,0.05,Wunderground v.1.15,2013-04-18 17:15:00,
2013-04-18 13:20:00,60.4,59.0,30.13,South,175,0.0,0.0,95,0.00,,,0.05,Wunderground v.1.15,2013-04-18 17:20:00,
2013-04-18 13:25:00,60.4,59.3,30.13,South,175,0.0,0.0,96,0.00,,,0.05,Wunderground v.1.15,2013-04-18 17:25:00,
2013-04-18 13:35:00,60.7,59.6,30.13,South,175,0.0,0.0,96,0.00,,,0.05,Wunderground v.1.15,2013-04-18 17:35:00,
2013-04-18 13:40:00,60.7,59.3,30.13,South,175,0.0,0.0,95,0.00,,,0.05,Wunderground v.1.15,2013-04-18 17:40:00,
2013-04-18 13:45:00,60.9,59.5,30.12,South,175,0.0,0.0,95,0.00,,,0.05,Wunderground v.1.15,2013-04-18 17:45:00,
2013-04-18 13:50:00,61.0,59.9,30.12,South,175,0.0,0.0,96,0.00,,,0.05,Wunderground v.1.15,2013-04-18 17:50:00,
2013-04-18 13:55:00,61.2,60.1,30.12,South,175,0.0,0.0,96,0.00,,,0.05,Wunderground v.1.15,2013-04-18 17:55:00,
2013-04-18 14:00:00,61.3,60.2,30.12,South,175,0.0,0.0,96,0.00,,,0.05,Wunderground v.1.15,2013-04-18 18:00:00,
2013-04-18 14:10:00,61.5,60.1,30.11,South,175,0.0,0.0,95,0.00,,,0.06,Wunderground v.1.15,2013-04-18 18:10:00,
2013-04-18 14:15:00,61.7,60.5,30.11,South,175,0.0,0.0,96,0.00,,,0.06,Wunderground v.1.15,2013-04-18 18:15:00,
2013-04-18 14:20:00,61.8,60.6,30.11,South,175,0.0,0.0,96,0.00,,,0.06,Wunderground v.1.15,2013-04-18 18:20:00,
2013-04-18 14:25:00,62.0,60.8,30.10,SSE,164,0.0,0.0,96,0.00,,,0.06,Wunderground v.1.15,2013-04-18 18:25:00,
2013-04-18 14:30:00,62.6,61.4,30.10,SSE,164,0.0,1.0,96,0.00,,,0.06,Wunderground v.1.15,2013-04-18 18:30:00,
2013-04-18 14:40:00,63.2,61.7,30.10,SSE,164,0.0,0.0,95,0.00,,,0.06,Wunderground v.1.15,2013-04-18 18:40:00,
2013-04-18 14:45:00,63.3,61.8,30.10,SSE,164,0.0,1.0,95,0.00,,,0.06,Wunderground v.1.15,2013-04-18 18:45:00,
2013-04-18 14:50:00,63.3,61.8,30.09,NE,54,1.0,3.0,95,0.00,,,0.06,Wunderground v.1.15,2013-04-18 18:50:00,
2013-04-18 14:55:00,63.2,61.4,30.09,NE,54,2.0,3.0,94,0.00,,,0.06,Wunderground v.1.15,2013-04-18 18:55:00,
2013-04-18 15:00:00,63.2,61.4,30.09,NE,54,1.0,1.0,94,0.00,,,0.06,Wunderground v.1.15,2013-04-18 19:00:00,
2013-04-18 15:10:00,63.8,62.0,30.08,NE,54,0.0,0.0,94,0.00,,,0.06,Wunderground v.1.15,2013-04-18 19:10:00,
2013-04-18 15:15:00,64.5,63.0,30.08,NE,35,1.0,1.0,95,0.00,,,0.06,Wunderground v.1.15,2013-04-18 19:15:00,
2013-04-18 15:20:00,65.2,63.4,30.07,NNE,30,1.0,2.0,94,0.00,,,0.06,Wunderground v.1.15,2013-04-18 19:20:00,
2013-04-18 15:25:00,65.6,63.2,30.07,NNE,30,1.0,2.0,92,0.00,,,0.06,Wunderground v.1.15,2013-04-18 19:25:00,
2013-04-18 15:30:00,65.8,63.1,30.07,NNE,30,0.0,0.0,91,0.00,,,0.06,Wunderground v.1.15,2013-04-18 19:30:00,
2013-04-18 15:35:00,66.3,63.6,30.07,NNE,30,0.0,0.0,91,0.00,,,0.06,Wunderground v.1.15,2013-04-18 19:35:00,
2013-04-18 15:45:00,68.0,63.7,30.06,SSE,159,2.0,6.0,86,0.00,,,0.06,Wunderground v.1.15,2013-04-18 19:45:00,
2013-04-18 15:50:00,68.8,63.8,30.05,SSE,159,3.0,6.0,84,0.00,,,0.06,Wunderground v.1.15,2013-04-18 19:50:00,
2013-04-18 15:55:00,69.6,63.9,30.05,SE,139,4.0,6.0,82,0.00,,,0.06,Wunderground v.1.15,2013-04-18 19:55:00,
2013-04-18 16:00:00,69.9,64.2,30.05,NE,36,3.0,5.0,82,0.00,,,0.06,Wunderground v.1.15,2013-04-18 20:00:00,
2013-04-18 16:10:00,70.0,63.5,30.04,South,184,2.0,2.0,80,0.00,,,0.06,Wunderground v.1.15,2013-04-18 20:10:00,
2013-04-18 16:15:00,70.3,64.2,30.04,South,184,1.0,2.0,81,0.00,,,0.06,Wunderground v.1.15,2013-04-18 20:15:00,
2013-04-18 16:20:00,70.6,63.8,30.03,South,184,0.0,0.0,79,0.00,,,0.06,Wunderground v.1.15,2013-04-18 20:20:00,
2013-04-18 16:25:00,70.9,64.4,30.03,NNW,341,0.0,6.0,80,0.00,,,0.06,Wunderground v.1.15,2013-04-18 20:25:00,
2013-04-18 16:30:00,70.7,64.9,30.03,SSE,147,2.0,6.0,82,0.00,,,0.06,Wunderground v.1.15,2013-04-18 20:30:00,
2013-04-18 16:35:00,71.1,63.5,30.02,SSE,165,3.0,6.0,77,0.00,,,0.06,Wunderground v.1.15,2013-04-18 20:35:00,
2013-04-18 16:40:00,71.8,63.8,30.02,East,97,3.0,3.0,76,0.00,,,0.06,Wunderground v.1.15,2013-04-18 20:40:00,
2013-04-18 16:50:00,72.6,63.4,30.02,SSE,161,5.0,9.0,73,0.00,,,0.06,Wunderground v.1.15,2013-04-18 20:50:00,
2013-04-18 16:55:00,73.1,63.1,30.02,South,175,6.0,9.0,71,0.00,,,0.06,Wunderground v.1.15,2013-04-18 20:55:00,
2013-04-18 17:00:00,73.6,63.2,30.02,SSE,157,7.0,7.0,70,0.00,,,0.06,Wunderground v.1.15,2013-04-18 21:00:00,
2013-04-18 17:10:00,74.2,63.0,30.02,South,180,7.0,9.0,68,0.00,,,0.06,Wunderground v.1.15,2013-04-18 21:10:00,
2013-04-18 17:20:00,74.3,62.6,30.02,South,186,6.0,6.0,67,0.00,,,0.06,Wunderground v.1.15,2013-04-18 21:20:00,
2013-04-18 17:25:00,74.3,62.6,30.01,SSE,159,5.0,6.0,67,0.00,,,0.06,Wunderground v.1.15,2013-04-18 21:25:00,
2013-04-18 17:30:00,74.5,62.8,30.01,SSE,159,4.0,10.0,67,0.00,,,0.06,Wunderground v.1.15,2013-04-18 21:30:00,
2013-04-18 17:35:00,74.8,63.1,30.01,SSE,150,4.0,10.0,67,0.00,,,0.06,Wunderground v.1.15,2013-04-18 21:35:00,
2013-04-18 17:40:00,74.9,62.3,30.01,SSE,160,4.0,6.0,65,0.00,,,0.06,Wunderground v.1.15,2013-04-18 21:40:00,
2013-04-18 17:45:00,75.1,62.1,30.01,SSE,154,5.0,6.0,64,0.00,,,0.06,Wunderground v.1.15,2013-04-18 21:45:00,
2013-04-18 17:50:00,75.4,61.9,30.01,South,186,4.0,4.0,63,0.00,,,0.06,Wunderground v.1.15,2013-04-18 21:50:00,
2013-04-18 17:55:00,75.3,61.8,30.00,SSE,149,4.0,7.0,63,0.00,,,0.06,Wunderground v.1.15,2013-04-18 21:55:00,
2013-04-18 18:00:00,75.3,61.8,30.00,SE,136,5.0,5.0,63,0.00,,,0.06,Wunderground v.1.15,2013-04-18 22:00:00,
2013-04-18 18:10:00,75.3,60.9,30.00,South,175,5.0,6.0,61,0.00,,,0.06,Wunderground v.1.15,2013-04-18 22:10:00,
2013-04-18 18:15:00,75.4,60.5,30.00,SSE,162,5.0,6.0,60,0.00,,,0.06,Wunderground v.1.15,2013-04-18 22:15:00,
2013-04-18 18:20:00,75.3,60.5,30.00,SSE,164,4.0,4.0,60,0.00,,,0.06,Wunderground v.1.15,2013-04-18 22:20:00,
2013-04-18 18:25:00,75.0,60.6,30.00,South,173,4.0,4.0,61,0.00,,,0.06,Wunderground v.1.15,2013-04-18 22:25:00,
2013-04-18 18:30:00,74.8,60.4,30.00,SSW,210,5.0,6.0,61,0.00,,,0.06,Wunderground v.1.15,2013-04-18 22:30:00,
2013-04-18 18:35:00,74.7,60.8,30.00,SE,126,3.0,6.0,62,0.00,,,0.06,Wunderground v.1.15,2013-04-18 22:35:00,
2013-04-18 18:40:00,74.7,60.4,30.00,SE,140,4.0,7.0,61,0.00,,,0.06,Wunderground v.1.15,2013-04-18 22:40:00,
2013-04-18 18:45:00,74.6,60.3,29.99,SSE,164,6.0,7.0,61,0.00,,,0.06,Wunderground v.1.15,2013-04-18 22:45:00,
2013-04-18 18:55:00,74.6,60.3,29.99,SE,138,5.0,5.0,61,0.00,,,0.06,Wunderground v.1.15,2013-04-18 22:55:00,
2013-04-18 19:00:00,74.5,60.6,29.99,South,180,5.0,5.0,62,0.00,,,0.06,Wunderground v.1.15,2013-04-18 23:00:00,
2013-04-18 19:10:00,74.1,60.2,29.98,SE,130,4.0,6.0,62,0.00,,,0.06,Wunderground v.1.15,2013-04-18 23:10:00,
2013-04-18 19:15:00,73.9,60.1,29.99,SE,133,5.0,6.0,62,0.00,,,0.06,Wunderground v.1.15,2013-04-18 23:15:00,
2013-04-18 19:20:00,73.8,60.0,29.98,SSE,165,5.0,6.0,62,0.00,,,0.06,Wunderground v.1.15,2013-04-18 23:20:00,
2013-04-18 19:30:00,73.4,60.0,29.98,South,178,3.0,3.0,63,0.00,,,0.06,Wunderground v.1.15,2013-04-18 23:30:00,
2013-04-18 19:35:00,73.1,59.8,29.98,South,179,2.0,4.0,63,0.00,,,0.06,Wunderground v.1.15,2013-04-18 23:35:00,
2013-04-18 19:40:00,72.9,59.6,29.98,South,182,2.0,2.0,63,0.00,,,0.06,Wunderground v.1.15,2013-04-18 23:40:00,
2013-04-18 19:45:00,72.6,59.7,29.98,SSE,158,2.0,2.0,64,0.00,,,0.06,Wunderground v.1.15,2013-04-18 23:45:00,
2013-04-18 19:50:00,72.4,59.5,29.98,South,170,2.0,5.0,64,0.00,,,0.06,Wunderground v.1.15,2013-04-18 23:50:00,
2013-04-18 20:00:00,71.8,60.2,29.99,ENE,59,2.0,2.0,67,0.00,,,0.06,Wunderground v.1.15,2013-04-19 00:00:00,
2013-04-18 20:10:00,70.4,60.5,29.99,SSE,163,2.0,4.0,71,0.00,,,0.06,Wunderground v.1.15,2013-04-19 00:10:00,
2013-04-18 20:15:00,69.8,60.4,29.99,South,190,2.0,4.0,72,0.00,,,0.06,Wunderground v.1.15,2013-04-19 00:15:00,
2013-04-18 20:20:00,69.4,60.4,29.99,SE,134,3.0,4.0,73,0.00,,,0.06,Wunderground v.1.15,2013-04-19 00:20:00,
2013-04-18 20:25:00,69.2,60.6,29.99,SSW,194,2.0,4.0,74,0.00,,,0.06,Wunderground v.1.15,2013-04-19 00:25:00,
2013-04-18 20:35:00,68.8,60.6,29.99,South,183,2.0,2.0,75,0.00,,,0.06,Wunderground v.1.15,2013-04-19 00:35:00,
2013-04-18 20:40:00,68.6,60.4,29.99,South,175,1.0,5.0,75,0.00,,,0.06,Wunderground v.1.15,2013-04-19 00:40:00,
2013-04-18 20:45:00,68.4,60.5,29.99,South,171,1.0,5.0,76,0.00,,,0.06,Wunderground v.1.15,2013-04-19 00:45:00,
2013-04-18 20:50:00,68.1,60.2,29.99,SSW,200,2.0,2.0,76,0.00,,,0.06,Wunderground v.1.15,2013-04-19 00:50:00,
2013-04-18 20:55:00,67.9,60.4,29.98,SSE,167,3.0,3.0,77,0.00,,,0.06,Wunderground v.1.15,2013-04-19 00:55:00,
2013-04-18 21:00:00,67.7,60.2,29.98,SSW,213,3.0,3.0,77,0.00,,,0.06,Wunderground v.1.15,2013-04-19 01:00:00,
2013-04-18 21:10:00,67.4,60.3,29.99,South,182,2.0,2.0,78,0.00,,,0.06,Wunderground v.1.15,2013-04-19 01:10:00,
2013-04-18 21:15:00,67.2,60.1,29.99,South,182,1.0,2.0,78,0.00,,,0.06,Wunderground v.1.15,2013-04-19 01:15:00,
2013-04-18 21:20:00,66.9,59.8,29.99,South,183,1.0,1.0,78,0.00,,,0.06,Wunderground v.1.15,2013-04-19 01:20:00,
2013-04-18 21:25:00,66.6,59.9,29.99,South,180,0.0,1.0,79,0.00,,,0.06,Wunderground v.1.15,2013-04-19 01:25:00,
2013-04-18 21:30:00,66.1,59.7,29.99,South,187,1.0,1.0,80,0.00,,,0.06,Wunderground v.1.15,2013-04-19 01:30:00,
2013-04-18 21:40:00,65.4,59.4,29.99,SW,218,0.0,2.0,81,0.00,,,0.06,Wunderground v.1.15,2013-04-19 01:40:00,
2013-04-18 21:45:00,65.1,59.5,29.99,SW,218,0.0,2.0,82,0.00,,,0.06,Wunderground v.1.15,2013-04-19 01:45:00,
2013-04-18 21:50:00,64.8,59.2,29.99,SW,218,0.0,0.0,82,0.00,,,0.06,Wunderground v.1.15,2013-04-19 01:50:00,
2013-04-18 21:55:00,64.0,58.4,29.99,SW,218,0.0,0.0,82,0.00,,,0.06,Wunderground v.1.15,2013-04-19 01:55:00,
2013-04-18 22:00:00,63.4,58.1,29.99,SW,218,0.0,0.0,83,0.00,,,0.06,Wunderground v.1.15,2013-04-19 02:00:00,
2013-04-18 22:05:00,62.8,57.9,29.99,SW,218,0.0,0.0,84,0.00,,,0.06,Wunderground v.1.15,2013-04-19 02:05:00,
2013-04-18 22:10:00,62.1,57.5,29.98,SW,218,0.0,0.0,85,0.00,,,0.06,Wunderground v.1.15,2013-04-19 02:10:00,
2013-04-18 22:20:00,61.1,57.2,29.98,SW,218,0.0,0.0,87,0.00,,,0.06,Wunderground v.1.15,2013-04-19 02:20:00,
2013-04-18 22:25:00,60.6,57.0,29.98,SW,218,0.0,0.0,88,0.00,,,0.06,Wunderground v.1.15,2013-04-19 02:25:00,
2013-04-18 22:30:00,60.2,56.9,29.98,SW,218,0.0,0.0,89,0.00,,,0.06,Wunderground v.1.15,2013-04-19 02:30:00,
2013-04-18 22:35:00,59.8,56.6,29.98,SW,218,0.0,0.0,89,0.00,,,0.06,Wunderground v.1.15,2013-04-19 02:35:00,
2013-04-18 22:40:00,59.5,56.6,29.98,SW,218,0.0,0.0,90,0.00,,,0.06,Wunderground v.1.15,2013-04-19 02:40:00,
2013-04-18 22:45:00,59.3,56.4,29.97,SW,218,0.0,0.0,90,0.00,,,0.06,Wunderground v.1.15,2013-04-19 02:45:00,
2013-04-18 22:50:00,59.0,56.7,29.97,SW,218,0.0,0.0,92,0.00,,,0.06,Wunderground v.1.15,2013-04-19 02:50:00,
2013-04-18 22:55:00,58.6,55.7,29.97,SW,218,0.0,0.0,90,0.00,,,0.06,Wunderground v.1.15,2013-04-19 02:55:00,
2013-04-18 23:00:00,58.3,55.7,29.97,SW,218,0.0,0.0,91,0.00,,,0.06,Wunderground v.1.15,2013-04-19 03:00:00,
2013-04-18 23:10:00,58.3,55.7,29.97,SW,218,0.0,0.0,91,0.00,,,0.06,Wunderground v.1.15,2013-04-19 03:10:00,
2013-04-18 23:15:00,58.2,55.9,29.97,SW,218,0.0,0.0,92,0.00,,,0.06,Wunderground v.1.15,2013-04-19 03:15:00,
2013-04-18 23:20:00,58.1,55.8,29.97,SW,218,0.0,0.0,92,0.00,,,0.06,Wunderground v.1.15,2013-04-19 03:20:00,
2013-04-18 23:25:00,58.0,55.4,29.97,SW,218,0.0,0.0,91,0.00,,,0.06,Wunderground v.1.15,2013-04-19 03:25:00,
2013-04-18 23:30:00,57.8,55.2,29.97,SW,218,0.0,0.0,91,0.00,,,0.06,Wunderground v.1.15,2013-04-19 03:30:00,
2013-04-18 23:35:00,57.4,54.8,29.96,SW,218,0.0,0.0,91,0.00,,,0.06,Wunderground v.1.15,2013-04-19 03:35:00,
2013-04-18 23:45:00,56.8,54.5,29.96,SW,218,0.0,0.0,92,0.00,,,0.06,Wunderground v.1.15,2013-04-19 03:45:00,
2013-04-18 23:50:00,56.9,54.9,29.96,SW,218,0.0,0.0,93,0.00,,,0.06,Wunderground v.1.15,2013-04-19 03:50:00,
2013-04-18 23:55:00,56.8,54.5,29.96,SW,218,0.0,0.0,92,0.00,,,0.06,Wunderground v.1.15,2013-04-19 03:55:00,